Location: C�mpuri de-Sus
(45.9500°N, 22.5500°E)
Time: 05:48:06
(UTC+00:00)

H-2A R/B - Pass Details

Date: 24 October 2021
Orbit: 577 x 654 km, 98.5° (Epoch: 04 December)

Event Time Altitude Azimuth Distance (km) Brightness Sun altitude
Exits shadow 17:13:50 44° 75° (ENE) 825 2.2 -19.0°
Maximum altitude 17:14:23 47° 100° (E) 790 2.1 -19.1°
Drops below altitude 10° 17:18:26 10° 175° (S) 1,934 4.5 -19.8°
Sets 17:20:40 0° 181° (S) 2,844 5.4 -20.2°
